Location: Chattahoochee River National Recreation Area
(34.0022°N, 84.2416°W)
Time: 14:09:28
(UTC-04:00)

Daily predictions for brighter satellites

Satellite Brightness Start Highest point End
(mag) Time Altitude Azimuth Time Altitude Azimuth Time Altitude Azimuth
Meteor 2-4 Rocket 4.2 20:57:06 10° SSE 21:02:35 44° E 21:08:10 10° NNE
Cosmos 2333 Rocket 3.9 20:57:53 10° SW 21:03:08 39° WNW 21:08:26 10° N
Cosmos 1844 Rocket 4.1 20:58:49 10° NW 21:04:01 39° WSW 21:09:12 10° S
FENGYUN 3A 3.9 21:01:25 10° SSE 21:06:36 53° ENE 21:11:51 10° N
Cosmos 1025 Rocket 3.1 21:02:23 10° S 21:06:46 85° E 21:11:10 10° N
Cosmos 2297 4.1 21:02:03 10° N 21:07:36 51° ENE 21:13:08 10° SE
Meteor 1-19 Rocket 4.2 21:03:19 10° S 21:08:55 71° E 21:14:29 10° NNE
BREEZE-M R/B 4.2 21:06:16 10° WNW 21:09:01 29° SW 21:13:29 10° SSE
Resurs 01 Rocket 3.7 21:09:45 10° SSW 21:13:35 28° W 21:17:26 10° NW
H-2A R/B 2.9 21:13:20 10° SSE 21:17:13 63° ENE 21:21:09 10° N
Okean 2 3.7 21:14:19 10° SSE 21:18:20 49° E 21:22:23 10° NNE
Cosmos 1892 Rocket 3.5 21:14:45 10° S 21:19:10 79° E 21:23:39 10° N
GEOS 3 Rocket 4.0 21:14:51 10° SE 21:19:59 55° NE 21:25:05 10° NNW
Meteor 2-17 Rocket 4.5 21:15:30 10° N 21:21:41 81° E 21:27:49 10° S
Aureole 2 Rocket 2.7 21:19:48 10° S 21:23:48 64° ESE 21:27:27 10° NNE
Cosmos 1331 Rocket 4.0 21:22:43 10° NNW 21:27:55 69° ENE 21:33:02 10° SSE
SeaSat 1 4.2 21:24:57 10° E 21:28:16 18° NE 21:31:36 10° NNE
OAO 3 Copernicus 4.3 21:23:38 10° W 21:28:42 90° SSW 21:33:34 11° E
USA 186 2.2 21:33:05 10° S 21:35:56 51° W 21:38:38 10° NNW
CZ-2C R/B 0.4 21:36:18 17° SSE 21:37:52 61° ENE 21:40:09 10° N
Cosmos 1302 Rocket 4.4 21:33:45 10° N 21:38:51 49° ENE 21:42:58 15° SE
ATLAS 5 CENTAUR R/B 3.0 21:40:08 10° S 21:41:26 12° SSE 21:41:36 12° SSE
DEBRIS 4.2 21:39:09 10° NW 21:43:53 28° NNE 21:45:48 13° ENE
Cosmos 1726 Rocket 4.0 21:41:23 10° NNW 21:45:47 63° W 21:50:06 10° S
Cosmos 2278 Rocket 3.7 21:41:17 10° NW 21:46:20 34° WSW 21:51:24 10° SSW
Cosmos 1461 3.8 21:43:31 10° N 21:47:27 35° NE 21:49:44 20° ESE
ATLAS 3B R/B 3.6 21:41:23 10° SSE 21:47:51 30° ESE 21:54:16 10° NE
SJ-11-01 4.2 21:44:23 12° SSE 21:48:38 72° ENE 21:53:18 10° N
Tsikada Rocket 4.2 21:43:52 10° SSE 21:50:03 53° E 21:56:15 10° NNE
Cosmos 2369 Rocket 4.0 21:55:22 10° NNE 21:59:00 17° ENE 22:01:39 13° E
ERS-1 Rocket 3.1 21:57:02 11° S 22:01:50 75° WSW 22:06:52 10° NNW
Cosmos 1602 Rocket 3.5 21:57:24 10° S 22:01:52 83° E 22:06:21 10° N
Cosmos 2058 Rocket 3.7 21:57:55 10° NNW 22:02:10 53° W 22:06:23 10° S
SL-16 R/B 4.2 21:58:06 10° SW 22:03:04 31° WNW 22:08:05 10° N
Cosmos 1666 2.7 21:59:21 10° N 22:03:16 85° W 22:05:58 19° S
APEX 3.8 21:59:04 10° NNW 22:03:28 87° ENE 22:07:16 21° SSE
Cosmos 2285 Rocket 4.2 21:58:16 10° NNW 22:04:34 71° WSW 22:10:15 13° S
Abrixas rocket 2.3 22:01:35 10° NW 22:05:00 73° NE 22:06:15 36° ESE
Atlas Centaur 2 3.0 21:57:51 10° WSW 22:05:04 61° SSE 22:12:42 13° E
USA 234 4.4 22:01:10 12° E 22:06:25 32° NE 22:12:04 10° NNW
Meteor 1-15 Rocket 4.3 22:02:37 10° N 22:08:14 79° W 22:13:12 14° S
Envisat 3.0 22:05:31 23° SSE 22:08:41 64° ENE 22:13:42 10° N
Cosmos 1464 Rocket 4.3 22:06:55 10° NNW 22:12:59 65° W 22:19:05 10° S
ISS -2.5 22:11:01 10° WSW 22:14:12 51° NW 22:17:24 10° NE
CZ-3C R/B 3.7 22:11:17 10° SW 22:15:37 15° SSW 22:16:41 14° S
Cosmos 1812 Rocket 3.7 22:12:14 10° N 22:16:34 57° E 22:18:12 35° SE
Cosmos 1939 Rocket 3.1 22:16:38 24° S 22:19:04 72° W 22:23:13 10° NNW
CZ-4 R/B 4.4 22:18:30 10° NNE 22:23:12 39° E 22:24:20 35° SE
GRACE-1 4.2 22:21:11 10° N 22:24:02 64° W 22:24:30 52° SW
Cosmos 1816 Rocket 4.5 22:18:50 14° S 22:24:27 79° E 22:30:48 10° N
GRACE-2 4.2 22:21:38 10° N 22:24:28 64° W 22:24:56 52° SW
H-2A R/B 3.0 22:22:24 16° SSW 22:25:27 43° W 22:29:34 10° NNW
SPOT 5 2.5 22:24:58 35° SSE 22:26:50 85° ENE 22:31:11 10° NNW
COSMOS 2455 3.0 22:22:48 10° SSW 22:28:47 75° WNW 22:34:48 10° NNE
Cosmos 1515 3.6 22:28:51 49° SSE 22:29:45 73° E 22:33:37 10° N
CZ-4 SHROUD 3.5 22:31:44 52° SW 22:32:11 60° W 22:35:19 10° NNW
Cosmos 2034 Rocket 4.4 22:26:01 10° NNW 22:32:16 62° W 22:37:26 15° S
Cosmos 1066 Rocket 4.3 22:30:02 33° SSE 22:32:21 55° E 22:37:58 10° NNE
Cosmos 1634 Rocket 4.3 22:26:45 10° N 22:32:39 46° E 22:34:39 35° SE
BREEZE-M DEB (TANK) 3.1 22:33:56 10° NW 22:35:27 36° W 22:35:27 36° W
USA 81 4.3 22:31:17 10° N 22:36:26 51° E 22:37:42 42° SE
YAOGAN 6 2.7 22:39:45 60° E 22:39:46 60° ENE 22:43:28 10° N
Terra 3.4 22:43:54 20° ENE 22:44:02 20° ENE 22:47:26 10° NNE
Meteor 2-12 Rocket 4.4 22:40:46 10° N 22:46:53 88° WSW 22:49:33 36° S
Cosmos 1346 Rocket 3.2 22:48:52 49° NE 22:48:52 49° NE 22:52:04 10° NNE
Cosmos 1992 Rocket 4.0 22:44:17 10° N 22:49:29 66° ENE 22:50:30 53° SE
Cosmos 1953 Rocket 3.4 22:52:36 67° E 22:52:40 67° E 22:57:04 10° NNE
Cosmos 1943 3.3 22:50:37 15° SSW 22:55:24 78° WNW 23:01:07 10° NNE
MetOp-A 4.4 22:55:39 38° SSW 22:57:37 65° WSW 23:02:57 10° NNW
H-2A R/B 3.0 22:57:40 30° ENE 22:57:47 30° ENE 23:02:08 10° N
Cosmos 2346 Rocket 4.4 22:56:16 32° S 22:59:22 84° W 23:05:33 10° N
Lacrosse 4 Rocket 1.4 23:03:02 70° N 23:03:02 70° N 23:06:41 10° NNE
Cosmos 1943 Rocket 3.6 22:59:48 10° N 23:04:08 23° ENE 23:04:49 22° ENE
Meteor 1-21 4.3 23:03:33 56° SE 23:04:17 61° E 23:10:01 10° NNE
SeaSat 1 2.9 23:04:20 44° SSW 23:05:23 52° WSW 23:10:13 10° NW
Cosmos 1190 Rocket 4.1 23:03:10 33° SSW 23:05:35 73° WNW 23:10:55 10° NNE
Geosat 3.8 23:00:41 10° NNE 23:05:44 81° ESE 23:06:36 61° S
SPOT 1/Viking Rocket 3.5 23:05:20 56° S 23:06:24 76° WSW 23:11:34 10° NNW
Cosmos 1900 4.3 23:07:02 58° SSW 23:08:05 87° ESE 23:13:15 10° NNE
Milstar 3 Cent rocket 4.2 23:13:58 10° WSW 23:16:23 14° SW 23:16:23 14° SW
Cosmos 676 Rocket 3.9 23:21:48 77° SSW 23:22:12 88° WNW 23:27:34 10° NNE
DELTA 2 DEB (DPAF) 4.3 23:22:59 73° NNW 23:22:59 73° NNW 23:27:04 10° NNW
DMSP B5D2-2 4.2 23:21:32 10° NNE 23:26:13 61° ENE 23:26:13 61° ENE
Cosmos 1758 Rocket 4.0 23:27:03 57° WNW 23:27:03 57° WNW 23:31:09 10° N
Cosmos 1140 Rocket 4.5 23:28:55 35° ENE 23:28:55 35° ENE 23:32:19 10° NNE
Cosmos 1766 4.4 23:23:48 10° N 23:26:30 41° N 23:26:30 41° N
CARTOSAT-1 4.3 23:31:25 47° NNE 23:31:25 47° NNE 23:34:38 10° N
ARGOS 3.6 23:33:15 49° SW 23:33:55 52° W 23:39:13 10° NNW
ATLAS 3B R/B 3.6 23:30:47 10° SW 23:38:17 53° NW 23:45:39 10° NNE
Cosmos 2369 Rocket 2.4 23:37:52 10° NNW 23:43:26 59° WSW 23:43:27 59° WSW
USA 234 3.1 23:48:30 68° SSW 23:49:01 71° SW 23:55:35 10° NW
